Regional Weather Roundup
Issued by NWS

Home | Current Version | Previous Version | Text Only | Print | Product List | Glossary Off
Versions: 1 2 3 4 5 6 7 8 9 10 11 12 13 14 15 16 17 18 19 20 21 22 23 24 25 26 27 28 29 30 31 32 33 34 35 36 37 38 39 40 41 42 43 44 45 46 47 48 49 50

226
ASUS43 KMKX 061611
RWRWI

WISCONSIN REGIONAL WEATHER ROUNDUP
NATIONAL WEATHER SERVICE MILWAUKEE/SULLIVAN WI
1000 AM CST SAT FEB 06 2016

NOTE: "FAIR" INDICATES FEW OR NO CLOUDS BELOW 12,000 FEET WITH NO
SIGNIFICANT WEATHER AND/OR OBSTRUCTIONS TO VISIBILITY.

WIZ001-002-006>008-014>016-023>028-061700-
NORTHWEST WISCONSIN

CITY           SKY/WX    TMP DP  RH WIND       PRES   REMARKS
SUPERIOR ARPT  CLOUDY    25  20  81 SW7       30.02F WCI  18
ASHLAND        CLOUDY    25  20  81 S7        30.04F WCI  17
HAYWARD        CLOUDY    24  19  81 S12       30.05S WCI  13
SIREN          PTSUNNY   26  22  82 S9        30.06F WCI  17
CUMBERLAND     CLOUDY    23  21  93 SW9       30.07F FOG     WCI  13
RICE LAKE      CLOUDY    25  21  85 S9        30.10S WCI  15
CHETEK         CLOUDY    25  21  85 SW8       30.10S WCI  16
LADYSMITH      CLOUDY    26  22  86 SW9       30.10R WCI  16
EAU CLAIRE     CLOUDY    27  20  75 SW9       30.12R WCI  18
MENOMONIE      CLOUDY    28  22  78 SW9       30.13R WCI  20
NEW RICHMOND   CLOUDY    26  21  83 S12       30.09F WCI  15
OSCEOLA        CLOUDY    27  23  86 S10       30.11F WCI  17
$$

WIZ003>005-009-010-017-018-061700-
NORTH CENTRAL WISCONSIN

CITY           SKY/WX    TMP DP  RH WIND       PRES   REMARKS
MANITOWISH WTR CLOUDY    22  19  91 SW9       30.02S WCI  11
ARBOR VITAE    CLOUDY    23  20  88 SW5       30.03S WCI  17
WOODRUFF       CLOUDY    23  20  88 SW5       30.03S WCI  17
RHINELANDER    CLOUDY    23  19  85 W9        30.04S WCI  13
EAGLE RIVER    CLOUDY    22  19  86 W9        30.03R WCI  12
LAND O LAKES   CLOUDY    23  19  81 SW8       30.03S WCI  14
PHILLIPS       CLOUDY    23  20  88 SW9       30.04F WCI  13
TOMAHAWK       CLOUDY    23  20  85 CALM      30.06S
MEDFORD        CLOUDY    24  22  91 SW8       30.07R FOG     WCI  15
MERRILL        CLOUDY    24  21  89 W7        30.09S FOG     WCI  16
$$

WIZ029-030-035-036-043>047-061700-
CENTRAL WISCONSIN

CITY           SKY/WX    TMP DP  RH WIND       PRES   REMARKS
WAUSAU         CLOUDY    26  21  81 SW8       30.08S WCI  18
MOSINEE        CLOUDY    25  25 100 CALM      30.11F
MARSHFIELD     CLOUDY    26  21  81 SW10      30.09F HAZE    WCI  16
STEVENS POINT  CLOUDY    24  22  91 SW8       30.13S FOG     WCI  15
WAUPACA        CLOUDY    29  24  82 SW7       30.15F WCI  22
WAUTOMA        CLOUDY    28  26  92 SW10      30.16S WCI  19
WISC RAPIDS    CLOUDY    26  22  84 W8        30.15S WCI  18
CAMP DOUGLAS   CLOUDY    28  28 100 SW9       30.15S WCI  20
$$

WIZ011>013-019>022-031-037>040-048>050-061700-
NORTHEAST WISCONSIN

CITY           SKY/WX    TMP DP  RH WIND       PRES   REMARKS
ANTIGO         CLOUDY    22  20  91 W10G16    30.07S WCI  12
SHAWANO        CLOUDY    28  23  81 SW7       30.13F WCI  21
OCONTO         CLOUDY    26  22  85 W8        30.14S WCI  18
STURGEON BAY   CLOUDY    25  19  80 W12G17    30.16S WCI  14
GREEN BAY      CLOUDY    27  22  81 W9        30.15F WCI  18
MANITOWOC      CLOUDY    30  23  75 W13G21    30.16F WCI  20
APPLETON       CLOUDY    27  21  80 SW8       30.14S WCI  18
CLINTONVILLE   CLOUDY    28  23  80 W7        30.14S WCI  21
OSHKOSH        CLOUDY    28  22  78 W6        30.16F WCI  22
$$

WIZ032>034-041-042-053>061-061700-
SOUTHWEST WISCONSIN

CITY           SKY/WX    TMP DP  RH WIND       PRES   REMARKS
LA CROSSE      CLOUDY    29  23  78 SW9       30.18R WCI  20
SPARTA         CLOUDY    29  24  81 W7        30.17R WCI  22
VIROQUA        CLOUDY    28  25  88 SW9       30.14S WCI  19
BOSCOBEL       CLOUDY    31  27  85 SW12      30.19F WCI  22
PRAIRIE DU CHI CLOUDY    31  25  79 SW5       30.20S WCI  26
PLATTEVILLE    CLOUDY    30  28  92 SW12      30.20S WCI  20
$$

WIZ056-057-062-063-064-067-068-061700-
SOUTH CENTRAL WISCONSIN

CITY           SKY/WX    TMP DP  RH WIND       PRES   REMARKS
REEDSBURG      CLOUDY    28  25  86 SW8       30.16F WCI  20
BARABOO/DELLS  CLOUDY    28  24  84 SW12      30.16S WCI  18
LONE ROCK      CLOUDY    30  24  78 SW7       30.19F WCI  23
MINERAL POINT  CLOUDY    32  28  86 SW12      30.17F WCI  23
MADISON        CLOUDY    28  23  81 VRB7      30.18F WCI  21
MIDDLETON      CLOUDY    31  26  80 SW12G18   30.18F WCI  22
WATERTOWN      CLOUDY    29  25  84 SW10      30.18F WCI  19
MONROE         CLOUDY    30  27  86 W17       30.19S WCI  18
JANESVILLE     CLOUDY    30  25  80 SW10      30.21F WCI  21
$$

WIZ051-052-058>065-066-070>072-061700-
SOUTHEAST WISCONSIN

CITY           SKY/WX    TMP DP  RH WIND       PRES   REMARKS
MILWAUKEE      CLOUDY    31  22  69 W12       30.20F WCI  22
WAUKESHA       CLOUDY    27  19  74 SW8       30.20S FOG     WCI  18
MILWAUKEE/TIMM CLOUDY    30  21  69 SW12      30.20S WCI  21
RACINE         CLOUDY    32  23  69 SW10G18   30.22F WCI  24
BURLINGTON     CLOUDY    28  22  78 SW8       30.21S WCI  20
KENOSHA        CLOUDY    32  23  69 SW15      30.21F WCI  22
FOND DU LAC    CLOUDY    29  23  78 W8        30.17S WCI  21
SHEBOYGAN      CLOUDY    29  23  78 W14       30.17S WCI  18
WEST BEND      CLOUDY    30  23  74 W7        30.17F WCI  23
JUNEAU         CLOUDY    28  23  82 SW12      30.18F WCI  17
$$

LSZ147-162-061700-
LAKE SUPERIOR

STATION/POSITION TIME  TEMP    WIND        PRES    WAVE
                       AIR SEA DIR/SP/G            HT/PER
                 (UTC) (F)     (DEG/KT/KT) (MB)    (FT/S)
DEVILS ISLAND    1600   26     220/  9/ 11 1018.0F
SAXON HARBOR     1500   25                 1017.3F
$$

LMZ867-665-643>646-061700-
LAKE MICHIGAN

STATION/POSITION TIME  TEMP    WIND        PRES    WAVE
                       AIR SEA DIR/SP/G            HT/PER
                 (UTC) (F)     (DEG/KT/KT) (MB)    (FT/S)
CHAMBERS ISLAND  1500   26     220/  6/ 13 1020.3S
ALGOMA LAKESHORE 1511          270/  8/ 11   N/A
KEWAUNEE LAKESHO 1500   27     280/ 13/ 19 1020.1F
SHEBOYGAN LAKESH 1600   30     250/ 12/ 15 1022.7F
PORT WASHINGTON  1540   31     260/  9/ 14 1023.0F
MILWAUKEE LAKESH 1510   30     240/ 13/ 16   N/A
KENOSHA   LAKESH 1600   32     230/ 11/ 14 1023.4F
$$

TC  - TEMPERATURE IN CELSIUS
VSB - VISIBILITY IN STATUTE MILES
WCI - WIND CHILL INDEX
HX  - HEAT INDEX





USA.gov is the U.S. government's official web portal to all federal, state and local government web resources and services.